UAL1180 KDEN-KCOS

Flight info

Callsign UAL1180
Flight time 0h 18m
Altitude 11000
Route LUFSE V389 ADANE/N0338F160 BRK
Aircraft A320/M-SDE3FGHIRWY/LB1

Departure

Time 2026-05-08 23:23
Airport Denver International Airport (KDEN)

Arrival

Time 2026-05-08 23:41
Airport City of Colorado Springs Municipal Airport (KCOS)
Time Latitude Longitude Altitude Speed Heading
2026-05-08 23:03 39.85943 -104.67961 5384 ft 0 kts 171°
2026-05-08 23:05 39.85933 -104.67902 5383 ft 0 kts 181°
2026-05-08 23:05 39.85943 -104.67914 5381 ft 0 kts 180°
2026-05-08 23:12 39.85952 -104.67914 5381 ft 4 kts 180°
2026-05-08 23:12 39.85973 -104.67914 5381 ft 4 kts 180°
2026-05-08 23:13 39.85995 -104.67914 5381 ft 4 kts 180°
2026-05-08 23:13 39.86001 -104.67913 5379 ft 0 kts 180°
2026-05-08 23:15 39.86001 -104.67914 5379 ft 1 kts 182°
2026-05-08 23:15 39.85996 -104.67912 5381 ft 1 kts 158°
2026-05-08 23:16 39.86020 -104.67875 5381 ft 11 kts 54°
2026-05-08 23:16 39.86029 -104.67763 5379 ft 14 kts 82°
2026-05-08 23:16 39.86053 -104.67633 5375 ft 16 kts 66°
2026-05-08 23:16 39.86062 -104.67490 5373 ft 17 kts 98°
2026-05-08 23:17 39.86113 -104.67364 5376 ft 16 kts 52°
2026-05-08 23:17 39.86130 -104.67222 5377 ft 17 kts 93°
2026-05-08 23:17 39.86133 -104.67070 5376 ft 17 kts 89°
2026-05-08 23:17 39.86132 -104.66914 5378 ft 17 kts 96°
2026-05-08 23:18 39.86132 -104.66762 5381 ft 17 kts 89°
2026-05-08 23:18 39.86129 -104.66616 5384 ft 15 kts 95°
2026-05-08 23:18 39.86109 -104.66497 5389 ft 12 kts 97°
2026-05-08 23:18 39.86108 -104.66409 5388 ft 8 kts 87°
2026-05-08 23:19 39.86109 -104.66319 5396 ft 10 kts 92°
2026-05-08 23:19 39.86141 -104.66237 5391 ft 16 kts 23°
2026-05-08 23:19 39.86288 -104.66234 5394 ft 23 kts
2026-05-08 23:19 39.86453 -104.66228 5393 ft 24 kts
2026-05-08 23:20 39.86628 -104.66225 5389 ft 27 kts
2026-05-08 23:20 39.86826 -104.66220 5376 ft 30 kts
2026-05-08 23:20 39.87046 -104.66223 5373 ft 32 kts
2026-05-08 23:20 39.87260 -104.66216 5381 ft 29 kts 359°
2026-05-08 23:21 39.87450 -104.66214 5390 ft 16 kts
2026-05-08 23:21 39.87456 -104.66214 5390 ft 0 kts
2026-05-08 23:21 39.87477 -104.66213 5391 ft 8 kts
2026-05-08 23:21 39.87577 -104.66214 5393 ft 18 kts
2026-05-08 23:22 39.87707 -104.66210 5393 ft 19 kts
2026-05-08 23:22 39.87755 -104.66085 5391 ft 20 kts 90°
2026-05-08 23:22 39.87752 -104.65634 5388 ft 84 kts 90°
2026-05-08 23:22 39.87746 -104.64609 5378 ft 138 kts 90°
2026-05-08 23:23 39.87726 -104.63156 5420 ft 177 kts 91°
2026-05-08 23:23 39.87612 -104.61524 6048 ft 183 kts 102°
2026-05-08 23:23 39.87223 -104.59948 6777 ft 182 kts 110°
2026-05-08 23:23 39.86743 -104.58391 7295 ft 194 kts 111°
2026-05-08 23:24 39.86209 -104.56691 7524 ft 218 kts 111°
2026-05-08 23:24 39.85609 -104.54764 7803 ft 242 kts 111°
2026-05-08 23:24 39.84958 -104.52627 8141 ft 266 kts 110°
2026-05-08 23:24 39.84254 -104.50287 8542 ft 287 kts 110°
2026-05-08 23:25 39.83518 -104.47826 9212 ft 296 kts 110°
2026-05-08 23:25 39.82768 -104.45302 9950 ft 302 kts 110°
2026-05-08 23:25 39.81996 -104.42678 10335 ft 321 kts 110°
2026-05-08 23:25 39.80898 -104.40051 10554 ft 343 kts 132°
2026-05-08 23:26 39.78956 -104.38208 11055 ft 351 kts 155°
2026-05-08 23:26 39.76681 -104.37027 11696 ft 354 kts 165°
2026-05-08 23:26 39.74285 -104.36260 12363 ft 355 kts 177°
2026-05-08 23:26 39.71825 -104.36325 13016 ft 353 kts 192°
2026-05-08 23:27 39.69420 -104.36957 13713 ft 353 kts 200°
2026-05-08 23:27 39.67102 -104.37979 14353 ft 352 kts 206°
2026-05-08 23:27 39.64808 -104.39137 14949 ft 356 kts 206°
2026-05-08 23:27 39.62490 -104.40308 15547 ft 359 kts 206°
2026-05-08 23:28 39.60158 -104.41498 16125 ft 362 kts 207°
2026-05-08 23:28 39.57838 -104.42696 16682 ft 365 kts 207°
2026-05-08 23:28 39.55471 -104.43925 16880 ft 366 kts 205°
2026-05-08 23:28 39.53010 -104.44775 16925 ft 368 kts 193°
2026-05-08 23:29 39.50443 -104.44909 16914 ft 373 kts 180°
2026-05-08 23:29 39.47866 -104.44411 16911 ft 376 kts 174°
2026-05-08 23:29 39.45294 -104.43828 16899 ft 375 kts 174°
2026-05-08 23:29 39.42721 -104.43244 16892 ft 375 kts 174°
2026-05-08 23:30 39.40154 -104.42663 16887 ft 375 kts 174°
2026-05-08 23:30 39.37583 -104.42079 16887 ft 375 kts 174°
2026-05-08 23:30 39.35014 -104.41495 16877 ft 375 kts 174°
2026-05-08 23:30 39.32443 -104.40913 16885 ft 374 kts 174°
2026-05-08 23:31 39.29882 -104.40335 16875 ft 374 kts 174°
2026-05-08 23:31 39.27315 -104.39760 16879 ft 374 kts 174°
2026-05-08 23:31 39.24750 -104.39184 16899 ft 374 kts 174°
2026-05-08 23:31 39.22186 -104.38628 16901 ft 373 kts 177°
2026-05-08 23:32 39.19621 -104.38510 16916 ft 367 kts 188°
2026-05-08 23:32 39.17134 -104.39056 16933 ft 359 kts 202°
2026-05-08 23:32 39.14893 -104.40374 16956 ft 351 kts 218°
2026-05-08 23:32 39.13057 -104.42377 16972 ft 343 kts 233°
2026-05-08 23:33 39.11749 -104.44894 16977 ft 337 kts 248°
2026-05-08 23:33 39.11029 -104.47734 16986 ft 334 kts 262°
2026-05-08 23:33 39.10913 -104.50725 17003 ft 336 kts 276°
2026-05-08 23:33 39.11374 -104.53606 16767 ft 321 kts 289°
2026-05-08 23:34 39.12108 -104.56283 16067 ft 314 kts 287°
2026-05-08 23:34 39.12648 -104.58988 15329 ft 310 kts 281°
2026-05-08 23:34 39.12938 -104.61726 14589 ft 308 kts 275°
2026-05-08 23:34 39.12970 -104.64471 13854 ft 306 kts 267°
2026-05-08 23:35 39.12326 -104.67061 13036 ft 309 kts 238°
2026-05-08 23:35 39.10732 -104.68913 12215 ft 317 kts 208°
2026-05-08 23:35 39.08589 -104.69627 11393 ft 322 kts 185°
2026-05-08 23:35 39.06360 -104.69580 10816 ft 315 kts 175°
2026-05-08 23:36 39.04297 -104.69271 10777 ft 289 kts 174°
2026-05-08 23:36 39.02370 -104.68972 10556 ft 271 kts 175°
2026-05-08 23:36 39.00536 -104.68670 9972 ft 260 kts 174°
2026-05-08 23:36 38.98804 -104.68537 9609 ft 239 kts 179°
2026-05-08 23:37 38.97217 -104.68537 9283 ft 218 kts 180°
2026-05-08 23:37 38.95772 -104.68546 9026 ft 195 kts 180°
2026-05-08 23:37 38.94495 -104.68551 8766 ft 173 kts 179°
2026-05-08 23:37 38.93323 -104.68553 8544 ft 164 kts 179°
2026-05-08 23:38 38.92193 -104.68555 8334 ft 161 kts 179°
2026-05-08 23:38 38.91083 -104.68557 8128 ft 159 kts 179°
2026-05-08 23:38 38.89976 -104.68559 7944 ft 158 kts 179°
2026-05-08 23:38 38.88879 -104.68561 7753 ft 157 kts 179°
2026-05-08 23:39 38.87784 -104.68563 7597 ft 156 kts 179°
2026-05-08 23:39 38.86703 -104.68565 7296 ft 154 kts 180°
2026-05-08 23:39 38.85641 -104.68560 7053 ft 152 kts 179°
2026-05-08 23:39 38.84585 -104.68575 6792 ft 151 kts 178°
2026-05-08 23:40 38.83547 -104.68591 6596 ft 151 kts 175°
2026-05-08 23:40 38.82487 -104.68580 6388 ft 154 kts 176°
2026-05-08 23:40 38.81409 -104.68580 6194 ft 155 kts 175°
2026-05-08 23:40 38.80442 -104.68559 6154 ft 112 kts 174°
2026-05-08 23:41 38.79927 -104.68568 6146 ft 55 kts 184°
2026-05-08 23:41 38.79551 -104.68573 6140 ft 53 kts 179°
2026-05-08 23:41 38.79206 -104.68643 6134 ft 48 kts 211°
2026-05-08 23:41 38.79105 -104.68780 6133 ft 2 kts 299°
2026-05-08 23:42 38.79133 -104.68785 6133 ft 5 kts 349°
2026-05-08 23:42 38.79183 -104.68792 6134 ft 10 kts
2026-05-08 23:42 38.79280 -104.68790 6135 ft 22 kts
2026-05-08 23:42 38.79445 -104.68788 6138 ft 24 kts
2026-05-08 23:43 38.79612 -104.68789 6141 ft 24 kts
2026-05-08 23:43 38.79777 -104.68788 6143 ft 24 kts 359°
2026-05-08 23:43 38.79939 -104.68789 6146 ft 23 kts
2026-05-08 23:43 38.80099 -104.68788 6149 ft 23 kts 360°
2026-05-08 23:44 38.80253 -104.68794 6151 ft 19 kts 340°
2026-05-08 23:44 38.80279 -104.68888 6151 ft 12 kts 281°
2026-05-08 23:44 38.80277 -104.69060 6151 ft 26 kts 270°
2026-05-08 23:44 38.80277 -104.69296 6151 ft 27 kts 270°
2026-05-08 23:45 38.80278 -104.69539 6151 ft 28 kts 272°
2026-05-08 23:45 38.80253 -104.69721 6151 ft 11 kts 205°
2026-05-08 23:45 38.80167 -104.69722 6149 ft 15 kts 185°
2026-05-08 23:45 38.80077 -104.69782 6148 ft 17 kts 259°
2026-05-08 23:46 38.80077 -104.70050 6148 ft 47 kts 270°
2026-05-08 23:46 38.80049 -104.70273 6147 ft 10 kts 204°
2026-05-08 23:46 38.79977 -104.70257 6145 ft 14 kts 173°
2026-05-08 23:46 38.79859 -104.70239 6144 ft 15 kts 134°
2026-05-08 23:47 38.79837 -104.70158 6144 ft 0 kts 103°